PulseSat

PulseSat

GSAT0204 (PRN E22)

Last updated on Jan. 16, 2019, 2:58 a.m. UTC

1 40545U 15017B   19014.97398134 -.00000042  00000-0  00000+0 0  9997
2 40545  56.0640  55.8505 0003092 237.1034 122.9340  1.70475589 23667
UTC
Height (km)
Latitude
Longitude
Inclination
Orbital Period

Next 30 passes for location: Hong Kong

Rise time Rise Azimuth (degrees) Set time Set Azimuth (degrees) Duration Max altitude (degrees)

No matching passes for this satellites

PulseSat

PulseSat is the new satellites software and hardware trackering solution by Pulsely.
Satellite Two Line Element Set source: US Air Force Space Command

Download PulseSat for iOS
© 2017 Pulsely Limited